Reflectivity
-20 -20 -16 -20 -12 34 14 -15 -20 -12 -4 -16 -20 -20 7 -1 21 27 32 8 -7 13 -2 -15 8 12 -15 -20 -20 -20 -20 -20 -20 -20 -20 -20 -20 -20 -20 -20 -20 -20 -20
-16 -0 26 2 37 35 33 -19 -20 -20 20 -13 -17 -4 12 -20 -19 4 13 17 6 -0 -5 -5 -20 -20 -20 -20 -20 -20 -20 -20 -20 -20 -20 -20 -20 -20 -20 -20 -20 -20 -20
-8 12 -4 -7 -2 -20 1 6 -9 1 14 15 6 15 -6 10 3 -6 16 4 2 5 4 1 5 -15 -20 -20 -20 -20 -20 -20 -17 6 -20 -20 -20 -20 -20 -17 -20 -20 -20
31 8 -14 -19 -20 -10 -12 6 13 9 13 6 6 -7 14 -1 -3 -13 2 -2 -7 -11 -6 -6 -19 -20 -20 -20 -20 -19 -20 -1 -4 8 3 -20 -20 -20 -2 -3 -20 -20 -19
-20 -20 -19 -18 16 22 14 24 -0 2 -11 4 2 -19 -9 -20 -11 -20 -8 -2 -14 -20 -20 -19 -20 -20 -4 -17 -20 -20 -20 -20 -20 -20 -20 -20 -20 -20 -18 12 8 5 -20
-20 -2 -1 -20 -20 22 -11 -20 -20 -13 1 -20 -20 -20 -20 -20 -5 3 -4 -20 -20 -20 -4 -20 -20 -20 -20 -20 -20 -20 -20 -19 -8 5 4 6 -20 13 -19 18 16 5 5
-20 -20 -20 -20 -20 -20 -20 -20 -20 -20 -20 -20 -20 -20 -20 -20 -10 -20 -20 -20 -20 -20 -20 -20 -20 -20 -20 -20 -20 -20 -20 -20 -20 -3 7 -0 14 15 20 15 13 9 23
-20 -20 -20 -20 -20 -20 -20 -20 -20 -20 -20 -20 -20 -20 -20 -8 -20 -20 -20 -20 -20 -20 -20 -20 -20 -20 -20 -20 -20 -20 -20 -20 -20 -20 -18 -15 11 7 19 13 11 -20 -20
-20 -20 -20 -20 -20 -20 -20 -20 -20 -20 -20 -20 -20 -20 -20 -20 -20 -20 -20 -20 -20 -20 -20 -20 -20 -20 -20 -20 -20 -20 -20 -20 -20 -20 -20 -15 4 -13 11 13 13 -20 -20
-20 -20 -20 -20 -20 -20 -20 -20 -20 -20 -20 -20 -20 -20 -20 -20 -20 -20 -20 -20 -20 -20 -20 -20 -20 -20 -20 -20 -20 -20 -20 -20 -20 -20 -20 -20 -20 -20 19 18 19 8 -20
-20 -20 -20 -20 -20 -20 -20 -20 -20 -20 -20 -20 -20 -20 -20 -20 -20 -20 -20 -20 -20 -20 -20 -20 -20 -20 -20 -20 -20 -20 -20 -20 -20 -16 -20 -20 -15 3 -16 -20 4 -20 -20
-20 -20 -20 -20 -20 -20 -20 -20 -20 -20 -20 -20 -20 -20 -20 -20 -20 -20 -20 -20 -20 -20 -20 -20 -20 -20 -20 -20 -20 -20 -20 -20 -20 -11 -20 -20 -6 -19 14 13 -5 -17 -20
-20 -20 -20 -20 -20 -20 -20 -20 -20 -20 -20 -20 -20 -20 -20 -20 -20 -20 -20 -20 -20 -20 -20 -20 -20 -20 -20 -20 -3 4 -20 -20 -20 -20 -20 -20 -7 1 10 24 34 -20 -20
-20 -20 -20 -20 -20 -20 -20 -20 -20 -20 -20 -20 -20 -20 -20 -20 -20 -20 -20 -20 -20 -20 -20 -20 -20 -20 -20 -20 -20 -20 -20 -7 1 19 -6 -7 0 20 27 20 -2 -20 -20
-20 -20 -20 -20 -20 -20 -20 -20 -20 -20 -20 -20 -20 -20 -20 -20 -20 -20 -20 -20 -20 -20 -20 -20 -20 -20 -20 -20 -20 -20 -20 -20 -20 12 7 -12 4 10 1 6 -13 -19 -20
-20 -20 -20 -20 -20 -20 -20 -20 -20 -20 -20 -20 -20 -20 -20 -20 -20 -20 -20 -20 -20 -20 -20 -20 -20 -20 -20 -20 -20 -20 -20 -18 -11 -18 23 -1 25 18 6 0 -20 -20 -20
-20 -20 -20 -20 -20 -20 -20 -20 -20 -20 -20 -20 -20 -20 -20 -20 -20 -20 -20 -20 -20 -20 -20 -20 -20 -20 -20 -18 -14 -1 1 -14 -12 -19 3 19 11 -20 -15 12 -20 -20 -20
-20 -18 -20 -18 -16 -18 -18 -20 -20 -20 -20 -20 -20 -20 -20 -20 -20 -20 -20 -20 -20 -20 -20 -20 -20 -20 -20 -7 -18 -3 2 -1 -3 -19 -16 3 6 -7 -20 11 8 -19 -19
-20 -6 1 -10 -1 8 11 -11 -20 -20 -20 -20 -20 -20 -20 -20 -20 -20 -20 -14 -20 -20 -15 -20 -20 -20 -20 -20 -13 -5 -8 4 -20 -19 -20 -4 -19 4 -2 -4 -8 -19 -11
14 13 3 6 20 19 16 6 -4 -16 -20 -20 -20 -20 -20 -20 -20 -20 -20 -20 -20 -20 -20 -20 -15 -20 -20 -10 -2 -13 -6 -13 -14 -20 -20 -2 5 12 25 -5 -14 18 13
11 19 22 16 17 16 11 3 -0 -12 -20 -20 -20 -20 -20 -20 -20 -20 -18 -20 -20 -20 -20 -17 -1 -20 -15 -15 -0 -13 -3 -8 -20 0 -6 -20 -20 5 -20 -20 6 7 -18
21 23 21 16 10 8 9 2 -20 -20 -20 -20 -20 -20 -20 -20 -2 -20 -20 -20 -20 -20 -20 -20 -20 -10 -8 1 -11 -20 1 -20 -12 -1 -20 -20 -20 -18 1 -20 8 10 4
16 13 12 10 8 5 -5 -20 -20 -20 -20 -20 -20 -20 -20 -20 -20 -20 -20 -20 -20 -20 -20 -20 -20 -5 -14 -20 -16 4 -0 0 -13 -20 -20 -20 -6 1 -1 -20 -7 21 9
9 7 6 2 -16 -20 -20 -17 -20 -20 -20 -20 -6 -20 -7 -20 -20 -20 -20 -20 -20 -20 -20 -12 -18 -20 -20 0 -2 -2 -4 -20 -20 -8 -4 -20 -17 -4 -6 -20 -7 12 -1
5 -4 -15 -20 -20 -3 -20 -5 -2 -20 -19 -20 -20 -20 -20 -19 -5 -20 -20 -20 -20 -18 -19 -20 -18 -2 -15 -20 -20 -20 -18 3 -20 -20 -20 -20 -20 -20 -20 -20 -20 -4 19
-20 -20 -20 -14 -12 -1 -5 -20 -20 -20 -20 -20 -20 -20 -16 -18 -20 -20 -19 -20 -12 -20 -20 -13 -20 -20 -20 -20 -15 -12 -20 -20 -20 -20 -13 -20 -20 -20 -20 -20 -20 4 19
Wind_Speed
13 10 10 11 8 4 5 6 6 7 8 8 8 8 9 8 9 9 6 7 7 5 4 5 8 8 7 5 4 4 4 4 6 4 5 6 4 5 5 5 6 6 5
9 12 8 8 5 6 8 8 8 8 7 8 8 8 7 9 9 9 8 7 6 6 6 7 8 8 7 6 5 6 5 5 5 11 7 5 7 7 6 5 4 4 4
8 12 12 8 10 10 9 9 8 8 8 7 8 9 9 9 8 7 6 7 6 6 6 7 9 7 6 5 6 7 5 7 6 7 8 5 5 4 5 4 4 4 5
12 12 11 10 11 10 9 9 8 8 9 9 8 9 7 8 7 8 6 4 4 5 5 6 8 10 9 9 8 7 8 7 7 7 8 7 4 5 4 4 3 3 3
12 12 11 12 10 10 10 9 10 9 9 9 10 9 7 6 4 5 4 4 2 4 8 9 9 12 16 13 9 7 7 9 10 10 11 10 6 3 5 4 4 3 4
11 12 11 11 11 11 11 10 10 10 10 9 7 7 7 4 8 7 4 1 5 8 7 6 7 10 10 13 14 16 16 13 14 11 11 12 12 8 5 4 3 3 5
11 11 11 12 12 12 11 12 11 9 9 8 6 6 6 5 10 9 6 4 5 5 6 6 7 8 9 10 12 15 12 14 13 13 13 13 12 12 10 4 3 4 6
12 12 12 12 12 11 10 9 9 7 7 7 6 6 5 2 9 8 2 5 4 6 7 8 9 10 11 12 15 14 14 12 13 9 9 13 12 11 7 7 8 7 3
12 12 12 12 11 10 10 8 7 5 6 6 6 5 12 10 12 9 6 5 5 6 7 8 10 11 14 18 13 15 16 14 14 18 18 18 19 17 8 3 4 3 3
13 13 12 11 10 9 8 8 7 6 5 4 6 7 10 9 12 14 8 4 5 5 6 9 11 12 16 19 15 13 16 15 15 16 15 15 10 8 9 7 5 6 3
13 11 11 9 9 9 7 6 5 5 8 7 7 5 7 7 10 16 14 5 3 5 6 7 7 17 21 24 24 15 17 18 18 13 12 11 9 6 6 8 8 6 7
12 11 10 9 8 7 7 5 6 6 6 6 5 4 4 6 12 13 13 12 11 5 7 8 10 23 26 26 21 23 25 19 11 12 11 12 9 7 7 7 9 7 6
12 11 10 8 7 6 6 5 5 6 5 4 3 2 3 3 4 15 15 15 12 6 7 14 24 25 25 16 18 19 13 9 9 9 9 10 10 9 6 4 5 7 6
11 11 9 8 7 6 5 4 5 5 3 3 3 2 3 3 6 6 6 6 10 9 10 11 13 15 8 11 11 13 10 10 14 9 7 8 8 3 4 5 5 4 3
11 9 8 5 7 6 9 5 7 6 4 2 4 3 3 2 5 7 9 7 6 8 10 8 8 6 8 9 9 10 11 12 11 13 6 8 7 3 3 5 3 4 5
9 7 5 4 4 7 8 6 11 10 10 10 8 4 2 4 6 10 14 15 17 16 7 7 4 5 7 9 9 10 10 13 12 12 10 5 2 1 2 4 3 3 4
8 8 4 4 4 4 3 5 6 4 6 9 9 7 5 2 5 11 13 14 18 15 2 4 3 5 7 8 8 10 10 10 14 12 11 11 3 2 2 3 5 6 6
8 6 4 4 4 3 3 3 3 3 3 4 8 8 7 3 7 12 12 11 5 6 4 5 5 6 8 9 9 10 10 10 10 12 12 10 11 3 3 5 5 7 6
7 6 6 6 6 5 3 2 2 2 0 1 1 6 7 7 11 13 11 1 2 5 6 6 5 6 7 8 9 9 10 10 9 10 11 11 11 11 7 5 7 10 9
8 8 6 5 3 3 2 2 1 1 1 1 1 1 3 5 3 5 3 2 2 3 4 6 7 6 7 8 8 9 9 10 10 10 11 11 10 12 7 2 4 5 6
5 5 5 4 3 3 2 1 1 1 1 1 1 4 6 1 3 5 2 2 3 3 4 6 6 6 7 7 8 9 10 9 10 10 9 11 11 11 11 11 7 7 7
6 4 3 3 2 2 2 2 2 2 2 2 1 1 3 2 3 2 3 2 2 3 3 5 6 7 7 7 8 9 9 10 10 10 10 10 10 11 10 10 13 4 4
4 3 2 3 2 3 2 2 1 2 2 3 3 3 3 2 2 2 3 2 2 2 3 5 6 6 7 7 8 8 9 9 10 10 11 11 10 11 10 11 10 6 5
3 3 2 2 2 2 3 1 2 3 2 2 3 3 3 2 2 3 3 2 2 3 3 4 6 9 9 8 8 9 10 10 10 11 10 10 12 12 10 10 11 14 6
2 2 2 2 2 1 2 2 2 2 3 3 4 4 4 4 4 3 3 3 3 4 5 7 7 9 11 14 15 16 15 15 12 15 11 12 13 15 13 11 12 10 6
3 2 1 2 2 3 3 3 3 3 3 3 3 4 5 5 5 4 4 4 4 6 8 7 9 13 16 13 15 17 17 18 16 17 12 10 11 10 10 11 14 9 8
Wind_Direction
201 160 180 193 197 155 139 116 109 109 121 126 131 135 141 137 139 129 121 123 136 161 187 212 242 253 260 250 265 256 243 236 259 266 241 242 253 242 247 207 196 197 213
189 177 170 139 132 91 82 95 112 114 102 121 132 134 125 125 120 124 136 152 170 195 217 244 258 264 256 251 241 251 247 248 248 268 257 253 242 238 219 211 212 202 198
105 111 101 99 86 86 81 81 84 96 108 116 123 126 133 132 132 137 151 163 179 207 239 257 271 284 277 270 254 253 251 256 245 251 263 241 237 228 246 233 201 209 220
105 106 106 98 96 95 98 98 104 108 111 111 119 126 125 128 141 148 159 172 208 241 264 281 278 279 271 265 265 258 257 257 263 267 271 266 248 251 240 221 254 198 245
94 95 101 100 100 105 104 103 104 106 111 118 120 126 137 140 146 131 155 207 234 278 273 267 265 254 255 255 264 261 263 269 270 274 273 276 274 265 238 254 232 240 251
103 110 109 114 122 118 116 118 117 126 126 130 128 121 120 125 143 175 194 195 263 270 276 301 304 304 292 275 268 265 264 268 267 262 264 265 269 265 249 222 222 253 272
109 119 132 126 121 126 134 138 130 125 127 115 122 136 161 167 170 186 187 254 281 297 288 291 298 303 315 312 317 324 306 278 259 267 272 269 271 266 267 191 195 193 239
135 130 124 132 130 121 115 117 125 123 124 142 154 169 188 111 103 80 98 259 324 335 336 333 332 334 338 346 331 319 311 306 304 291 245 256 258 256 238 189 202 211 222
132 135 131 119 121 127 126 121 120 135 147 170 166 148 95 87 91 69 39 38 9 341 332 340 339 330 326 338 328 318 311 308 307 307 311 302 283 248 204 175 164 158 253
136 127 134 142 135 129 139 152 164 152 116 93 90 79 98 102 87 66 47 39 15 358 331 318 315 315 324 326 320 312 303 301 301 298 300 293 268 236 212 194 208 196 187
132 137 129 135 136 138 122 128 128 98 93 82 75 61 79 81 83 71 55 46 23 331 322 321 319 317 317 313 306 295 282 287 290 290 292 287 284 226 211 205 195 186 209
130 132 138 133 135 130 121 112 100 97 106 110 117 95 93 76 112 69 51 29 356 334 325 316 312 315 312 308 306 294 287 282 276 278 279 284 278 258 231 202 188 194 205
143 133 127 131 124 122 111 118 98 92 95 97 98 91 84 51 128 49 28 4 345 336 320 317 315 313 309 310 317 321 322 303 270 263 265 267 269 269 200 185 183 186 206
134 134 134 122 115 100 94 87 88 72 74 90 82 65 56 17 47 25 5 340 333 332 324 311 299 293 310 323 333 329 333 323 326 262 268 275 271 242 189 164 187 190 160
136 131 117 124 119 101 67 50 92 58 55 46 71 58 65 16 47 0 334 325 317 314 310 302 300 333 329 331 333 332 334 334 333 321 277 269 252 181 185 206 178 167 193
130 118 107 105 103 133 130 111 71 124 118 107 100 87 61 79 1 337 330 320 316 314 302 301 325 329 331 330 331 333 333 333 337 329 310 309 338 245 215 185 168 173 189
98 109 91 111 119 95 82 128 141 121 141 158 153 154 155 148 336 327 323 316 312 304 300 313 321 328 329 329 333 330 328 332 329 332 326 317 261 246 224 216 203 194 205
91 118 113 89 88 92 81 67 54 101 165 176 193 197 165 117 349 331 314 311 321 337 321 323 331 335 330 334 332 327 325 327 332 325 326 321 313 223 235 229 216 206 200
102 74 76 68 49 48 66 84 78 94 131 8 26 190 139 53 9 332 318 315 309 318 325 333 330 327 330 326 323 321 324 323 327 322 319 322 335 301 255 225 240 206 195
80 70 93 111 126 97 77 46 72 78 1 318 34 37 51 36 18 302 286 318 313 313 337 330 323 325 322 321 320 323 323 324 326 323 323 325 336 333 311 228 246 230 186
80 65 55 76 80 74 39 26 37 9 307 319 9 113 131 105 280 274 321 320 341 341 329 317 323 324 321 320 321 328 319 321 320 316 323 324 332 328 327 328 286 228 177
86 98 81 71 96 101 44 351 7 335 298 304 351 62 203 196 265 326 322 331 319 313 321 325 320 317 315 322 324 314 310 316 311 320 320 319 321 320 321 316 307 156 166
82 88 119 116 44 87 221 250 324 298 349 357 339 318 312 310 326 318 317 307 316 331 323 319 308 316 323 309 299 304 309 309 314 308 306 309 316 313 312 308 312 267 177
86 71 52 70 63 35 310 348 336 299 262 285 297 313 313 325 318 307 299 315 325 319 308 317 324 307 302 305 312 307 301 297 291 290 306 311 301 299 297 303 298 298 172
74 54 40 0 333 284 330 292 301 327 317 327 321 324 330 320 315 325 325 328 320 306 337 317 300 312 318 311 301 294 291 295 295 290 289 284 281 284 286 287 288 289 229
46 38 356 321 317 327 331 330 325 326 329 330 338 334 318 320 328 323 324 308 324 334 315 313 313 308 307 302 301 300 298 294 289 283 278 271 278 279 277 278 286 290 226